Time,TemperatureF,DewpointF,PressureIn,WindDirection,WindDirectionDegrees,WindSpeedMPH,WindSpeedGustMPH,Humidity,HourlyPrecipIn,Conditions,Clouds,dailyrainin,SoftwareType,DateUTC
2013-07-09 00:00:00,77.9,74.5,30.17,NW,317,0.0,1.0,89,0.00,,,0.08,meteohub,2013-07-09 04:00:00,
2013-07-09 00:01:00,77.9,74.5,30.17,NW,317,0.0,1.0,89,0.00,,,0.08,meteohub,2013-07-09 04:01:00,
2013-07-09 00:02:00,77.9,74.5,30.17,NW,317,0.0,1.0,89,0.00,,,0.08,meteohub,2013-07-09 04:02:00,
2013-07-09 00:04:00,77.9,74.5,30.17,NW,317,0.0,1.0,89,0.00,,,0.08,meteohub,2013-07-09 04:04:00,
2013-07-09 00:05:00,77.9,74.5,30.17,NW,317,0.0,1.0,89,0.00,,,0.01,meteohub,2013-07-09 04:05:00,
2013-07-09 00:10:00,77.9,74.5,30.17,NW,317,0.0,0.0,89,0.01,,,0.01,meteohub,2013-07-09 04:10:00,
2013-07-09 00:15:00,77.7,74.3,30.17,NW,317,0.0,0.0,89,0.01,,,0.01,meteohub,2013-07-09 04:15:00,
2013-07-09 00:20:00,77.7,74.3,30.17,NW,317,0.0,0.0,89,0.01,,,0.01,meteohub,2013-07-09 04:20:00,
2013-07-09 00:26:00,77.7,74.5,30.16,NW,317,0.0,0.0,90,0.01,,,0.01,meteohub,2013-07-09 04:26:00,
2013-07-09 00:31:00,77.7,74.5,30.17,NW,317,0.0,0.0,90,0.01,,,0.01,meteohub,2013-07-09 04:31:00,
2013-07-09 00:36:00,77.7,74.5,30.17,NW,317,0.0,0.0,90,0.01,,,0.01,meteohub,2013-07-09 04:36:00,
2013-07-09 00:41:00,77.7,74.5,30.17,NW,317,0.0,0.0,90,0.01,,,0.01,meteohub,2013-07-09 04:41:00,
2013-07-09 00:46:00,77.7,74.5,30.17,NW,317,0.0,0.0,90,0.01,,,0.01,meteohub,2013-07-09 04:46:00,
2013-07-09 00:51:00,77.7,74.5,30.17,NW,317,0.0,0.0,90,0.01,,,0.01,meteohub,2013-07-09 04:51:00,
2013-07-09 00:56:00,77.5,74.3,30.17,NW,317,0.0,0.0,90,0.01,,,0.01,meteohub,2013-07-09 04:56:00,
2013-07-09 01:01:00,77.5,74.3,30.17,NW,317,0.0,0.0,90,0.01,,,0.01,meteohub,2013-07-09 05:01:00,
2013-07-09 01:06:00,77.5,74.3,30.17,NW,317,0.0,0.0,90,0.00,,,0.01,meteohub,2013-07-09 05:06:00,
2013-07-09 01:11:00,77.5,74.3,30.16,NW,317,0.0,0.0,90,0.00,,,0.01,meteohub,2013-07-09 05:11:00,
2013-07-09 01:16:00,77.5,74.3,30.16,NW,317,0.0,0.0,90,0.00,,,0.01,meteohub,2013-07-09 05:16:00,
2013-07-09 01:21:00,77.5,74.3,30.16,NW,317,0.0,0.0,90,0.00,,,0.01,meteohub,2013-07-09 05:21:00,
2013-07-09 01:27:00,77.4,74.1,30.15,NW,317,0.0,0.0,90,0.00,,,0.01,meteohub,2013-07-09 05:27:00,
2013-07-09 01:32:00,77.4,74.1,30.15,NW,317,0.0,0.0,90,0.00,,,0.01,meteohub,2013-07-09 05:32:00,
2013-07-09 01:37:00,77.4,74.1,30.15,NW,317,0.0,0.0,90,0.00,,,0.01,meteohub,2013-07-09 05:37:00,
2013-07-09 01:42:00,77.4,74.1,30.15,NW,317,0.0,0.0,90,0.00,,,0.01,meteohub,2013-07-09 05:42:00,
2013-07-09 01:47:00,77.4,74.5,30.14,NW,317,0.0,0.0,91,0.00,,,0.01,meteohub,2013-07-09 05:47:00,
2013-07-09 01:52:00,77.2,74.3,30.14,NW,317,0.0,0.0,91,0.00,,,0.01,meteohub,2013-07-09 05:52:00,
2013-07-09 01:57:00,77.2,74.3,30.14,NW,317,0.0,0.0,91,0.00,,,0.01,meteohub,2013-07-09 05:57:00,
2013-07-09 02:02:00,77.2,74.3,30.14,NW,317,0.0,0.0,91,0.00,,,0.01,meteohub,2013-07-09 06:02:00,
2013-07-09 02:07:00,77.2,74.3,30.14,NW,317,0.0,0.0,91,0.00,,,0.01,meteohub,2013-07-09 06:07:00,
2013-07-09 02:12:00,77.2,74.3,30.13,NW,317,0.0,0.0,91,0.00,,,0.01,meteohub,2013-07-09 06:12:00,
2013-07-09 02:17:00,77.2,74.3,30.14,NW,317,0.0,0.0,91,0.00,,,0.01,meteohub,2013-07-09 06:17:00,
2013-07-09 02:22:00,77.2,74.3,30.14,NW,317,0.0,0.0,91,0.00,,,0.01,meteohub,2013-07-09 06:22:00,
2013-07-09 02:27:00,77.2,74.3,30.14,NW,317,0.0,0.0,91,0.00,,,0.01,meteohub,2013-07-09 06:27:00,
2013-07-09 02:33:00,77.2,74.3,30.14,NW,317,0.0,0.0,91,0.00,,,0.01,meteohub,2013-07-09 06:33:00,
2013-07-09 02:38:00,77.0,74.1,30.13,NW,317,0.0,2.0,91,0.00,,,0.01,meteohub,2013-07-09 06:38:00,
2013-07-09 02:43:00,77.0,74.1,30.13,NW,317,0.0,2.0,91,0.00,,,0.01,meteohub,2013-07-09 06:43:00,
2013-07-09 02:48:00,77.2,74.3,30.13,NW,317,0.0,2.0,91,0.00,,,0.01,meteohub,2013-07-09 06:48:00,
2013-07-09 02:53:00,77.2,73.9,30.13,NW,317,0.0,4.0,90,0.00,,,0.01,meteohub,2013-07-09 06:53:00,
2013-07-09 02:58:00,77.5,74.3,30.13,NW,317,0.0,4.0,90,0.00,,,0.01,meteohub,2013-07-09 06:58:00,
2013-07-09 03:03:00,77.7,74.3,30.13,NW,317,1.0,5.0,89,0.00,,,0.01,meteohub,2013-07-09 07:03:00,
2013-07-09 03:08:00,78.1,74.3,30.13,NNW,334,1.0,5.0,88,0.00,,,0.01,meteohub,2013-07-09 07:08:00,
2013-07-09 03:13:00,78.4,74.3,30.12,NE,55,6.0,6.0,87,0.00,,,0.01,meteohub,2013-07-09 07:13:00,
2013-07-09 03:18:00,79.2,74.7,30.12,ENE,77,4.0,5.0,86,0.00,,,0.01,meteohub,2013-07-09 07:18:00,
2013-07-09 03:24:00,79.5,74.7,30.12,East,80,6.0,8.0,85,0.00,,,0.01,meteohub,2013-07-09 07:24:00,
2013-07-09 03:29:00,79.9,74.7,30.12,East,88,7.0,8.0,84,0.00,,,0.01,meteohub,2013-07-09 07:29:00,
2013-07-09 03:34:00,80.1,74.5,30.12,East,80,9.0,11.0,83,0.00,,,0.01,meteohub,2013-07-09 07:34:00,
2013-07-09 03:39:00,80.1,74.5,30.12,East,92,9.0,14.0,83,0.00,,,0.01,meteohub,2013-07-09 07:39:00,
2013-07-09 03:44:00,80.2,74.3,30.12,East,88,7.0,14.0,82,0.00,,,0.01,meteohub,2013-07-09 07:44:00,
2013-07-09 03:52:00,80.2,74.3,30.12,ENE,76,11.0,15.0,82,0.01,,,0.02,meteohub,2013-07-09 07:52:00,
2013-07-09 03:58:00,80.2,74.3,30.12,East,101,14.0,15.0,82,0.01,,,0.02,meteohub,2013-07-09 07:58:00,
2013-07-09 04:03:00,80.2,74.3,30.12,ESE,109,8.0,15.0,82,0.01,,,0.02,meteohub,2013-07-09 08:03:00,
2013-07-09 04:08:00,80.2,74.3,30.13,East,88,3.0,15.0,82,0.01,,,0.02,meteohub,2013-07-09 08:08:00,
2013-07-09 04:13:00,80.1,74.1,30.12,East,88,6.0,15.0,82,0.01,,,0.02,meteohub,2013-07-09 08:13:00,
2013-07-09 04:18:00,80.1,74.5,30.12,East,91,5.0,14.0,83,0.01,,,0.02,meteohub,2013-07-09 08:18:00,
2013-07-09 04:23:00,80.1,74.5,30.13,ESE,103,3.0,11.0,83,0.01,,,0.02,meteohub,2013-07-09 08:23:00,
2013-07-09 04:28:00,79.9,74.3,30.12,East,100,1.0,11.0,83,0.01,,,0.02,meteohub,2013-07-09 08:28:00,
2013-07-09 04:33:00,79.9,74.3,30.12,East,100,2.0,8.0,83,0.01,,,0.02,meteohub,2013-07-09 08:33:00,
2013-07-09 04:39:00,79.9,74.3,30.12,East,100,0.0,7.0,83,0.01,,,0.02,meteohub,2013-07-09 08:39:00,
2013-07-09 04:44:00,79.5,74.3,30.12,East,100,0.0,7.0,84,0.00,,,0.02,meteohub,2013-07-09 08:44:00,
2013-07-09 04:49:00,79.5,74.3,30.12,East,100,0.0,7.0,84,0.00,,,0.02,meteohub,2013-07-09 08:49:00,
2013-07-09 04:55:00,79.3,73.8,30.12,East,100,3.0,6.0,83,0.00,,,0.02,meteohub,2013-07-09 08:55:00,
2013-07-09 05:00:00,79.2,73.9,30.12,East,100,3.0,5.0,84,0.00,,,0.02,meteohub,2013-07-09 09:00:00,
2013-07-09 05:05:00,79.0,73.4,30.12,East,100,2.0,5.0,83,0.00,,,0.02,meteohub,2013-07-09 09:05:00,
2013-07-09 05:10:00,79.2,73.9,30.13,East,100,2.0,5.0,84,0.00,,,0.02,meteohub,2013-07-09 09:10:00,
2013-07-09 05:15:00,79.2,74.3,30.12,East,100,0.0,5.0,85,0.00,,,0.02,meteohub,2013-07-09 09:15:00,
2013-07-09 05:21:00,79.2,73.9,30.12,East,100,0.0,5.0,84,0.00,,,0.02,meteohub,2013-07-09 09:21:00,
2013-07-09 05:26:00,79.2,73.9,30.13,East,100,0.0,5.0,84,0.00,,,0.02,meteohub,2013-07-09 09:26:00,
2013-07-09 05:31:00,79.0,73.8,30.13,East,100,0.0,3.0,84,0.00,,,0.02,meteohub,2013-07-09 09:31:00,
2013-07-09 05:36:00,78.6,73.4,30.13,East,100,0.0,1.0,84,0.00,,,0.02,meteohub,2013-07-09 09:36:00,
2013-07-09 05:42:00,78.4,73.2,30.13,East,100,1.0,2.0,84,0.00,,,0.02,meteohub,2013-07-09 09:42:00,
2013-07-09 05:47:00,78.6,73.4,30.12,East,100,1.0,5.0,84,0.00,,,0.02,meteohub,2013-07-09 09:47:00,
2013-07-09 05:52:00,78.6,73.0,30.12,East,100,2.0,6.0,83,0.00,,,0.02,meteohub,2013-07-09 09:52:00,
2013-07-09 05:57:00,78.8,73.2,30.12,East,100,0.0,6.0,83,0.00,,,0.02,meteohub,2013-07-09 09:57:00,
2013-07-09 06:02:00,78.6,73.0,30.12,East,100,1.0,6.0,83,0.00,,,0.02,meteohub,2013-07-09 10:02:00,
2013-07-09 06:07:00,78.6,73.0,30.12,East,100,0.0,6.0,83,0.00,,,0.02,meteohub,2013-07-09 10:07:00,
2013-07-09 06:12:00,78.6,73.4,30.12,East,100,0.0,5.0,84,0.00,,,0.02,meteohub,2013-07-09 10:12:00,
2013-07-09 06:17:00,78.6,73.4,30.12,East,100,0.0,3.0,84,0.00,,,0.02,meteohub,2013-07-09 10:17:00,
2013-07-09 06:22:00,78.4,73.2,30.12,East,100,0.0,3.0,84,0.00,,,0.02,meteohub,2013-07-09 10:22:00,
2013-07-09 06:27:00,78.4,73.2,30.12,East,100,0.0,3.0,84,0.00,,,0.02,meteohub,2013-07-09 10:27:00,
2013-07-09 06:32:00,78.4,73.2,30.13,East,100,0.0,2.0,84,0.00,,,0.02,meteohub,2013-07-09 10:32:00,
2013-07-09 06:37:00,78.4,73.2,30.13,East,100,3.0,3.0,84,0.00,,,0.02,meteohub,2013-07-09 10:37:00,
2013-07-09 06:42:00,78.4,73.2,30.13,East,100,1.0,5.0,84,0.00,,,0.02,meteohub,2013-07-09 10:42:00,
2013-07-09 06:47:00,78.6,73.4,30.13,East,97,3.0,8.0,84,0.00,,,0.02,meteohub,2013-07-09 10:47:00,
2013-07-09 06:52:00,78.8,73.6,30.14,East,97,1.0,8.0,84,0.00,,,0.02,meteohub,2013-07-09 10:52:00,
2013-07-09 06:57:00,79.0,73.8,30.14,East,97,0.0,8.0,84,0.00,,,0.02,meteohub,2013-07-09 10:57:00,
2013-07-09 07:02:00,79.0,74.1,30.14,East,97,0.0,6.0,85,0.00,,,0.02,meteohub,2013-07-09 11:02:00,
2013-07-09 07:07:00,78.8,73.9,30.14,East,97,0.0,6.0,85,0.00,,,0.02,meteohub,2013-07-09 11:07:00,
2013-07-09 07:12:00,78.8,73.9,30.14,East,97,0.0,5.0,85,0.00,,,0.02,meteohub,2013-07-09 11:12:00,
2013-07-09 07:17:00,79.0,74.1,30.14,East,97,0.0,5.0,85,0.00,,,0.02,meteohub,2013-07-09 11:17:00,
2013-07-09 07:22:00,79.0,74.1,30.14,East,97,1.0,3.0,85,0.00,,,0.02,meteohub,2013-07-09 11:22:00,
2013-07-09 07:28:00,79.2,74.3,30.14,East,97,1.0,5.0,85,0.00,,,0.02,meteohub,2013-07-09 11:28:00,
2013-07-09 07:33:00,79.2,74.3,30.14,East,97,0.0,5.0,85,0.00,,,0.02,meteohub,2013-07-09 11:33:00,
2013-07-09 07:38:00,79.0,74.1,30.14,East,95,0.0,5.0,85,0.00,,,0.02,meteohub,2013-07-09 11:38:00,
2013-07-09 07:43:00,79.2,74.3,30.14,East,87,5.0,8.0,85,0.00,,,0.02,meteohub,2013-07-09 11:43:00,
2013-07-09 07:48:00,79.3,74.1,30.15,East,79,5.0,10.0,84,0.00,,,0.02,meteohub,2013-07-09 11:48:00,
2013-07-09 07:53:00,79.5,74.3,30.15,East,82,7.0,11.0,84,0.00,,,0.02,meteohub,2013-07-09 11:53:00,
2013-07-09 07:58:00,79.7,74.5,30.15,East,81,1.0,11.0,84,0.00,,,0.02,meteohub,2013-07-09 11:58:00,
2013-07-09 08:03:00,79.7,74.1,30.15,East,80,0.0,11.0,83,0.00,,,0.02,meteohub,2013-07-09 12:03:00,
2013-07-09 08:08:00,79.9,74.3,30.14,East,80,0.0,8.0,83,0.00,,,0.02,meteohub,2013-07-09 12:08:00,
2013-07-09 08:13:00,80.1,74.5,30.15,East,80,0.0,6.0,83,0.00,,,0.02,meteohub,2013-07-09 12:13:00,
2013-07-09 08:19:00,80.2,74.7,30.15,East,80,0.0,6.0,83,0.00,,,0.02,meteohub,2013-07-09 12:19:00,
2013-07-09 08:24:00,80.4,74.5,30.15,East,80,0.0,6.0,82,0.00,,,0.02,meteohub,2013-07-09 12:24:00,
2013-07-09 08:29:00,80.4,74.5,30.15,East,80,0.0,5.0,82,0.00,,,0.02,meteohub,2013-07-09 12:29:00,
2013-07-09 08:34:00,80.8,74.8,30.15,East,79,1.0,6.0,82,0.00,,,0.02,meteohub,2013-07-09 12:34:00,
2013-07-09 08:39:00,80.8,74.8,30.16,East,79,3.0,6.0,82,0.00,,,0.02,meteohub,2013-07-09 12:39:00,
2013-07-09 08:44:00,80.8,74.8,30.16,East,79,1.0,6.0,82,0.00,,,0.02,meteohub,2013-07-09 12:44:00,
2013-07-09 08:49:00,81.0,75.0,30.16,East,84,5.0,8.0,82,0.00,,,0.02,meteohub,2013-07-09 12:49:00,
2013-07-09 08:54:00,81.1,75.2,30.16,East,84,1.0,8.0,82,0.00,,,0.02,meteohub,2013-07-09 12:54:00,
2013-07-09 09:00:00,81.3,75.4,30.17,East,84,1.0,8.0,82,0.00,,,0.02,meteohub,2013-07-09 13:00:00,
2013-07-09 09:05:00,81.7,75.6,30.17,East,84,1.0,6.0,82,0.00,,,0.02,meteohub,2013-07-09 13:05:00,
2013-07-09 09:10:00,81.9,75.4,30.17,East,84,0.0,5.0,81,0.00,,,0.02,meteohub,2013-07-09 13:10:00,
2013-07-09 09:15:00,82.0,75.6,30.17,East,84,0.0,5.0,81,0.00,,,0.02,meteohub,2013-07-09 13:15:00,
2013-07-09 09:20:00,82.4,75.6,30.17,East,84,1.0,6.0,80,0.00,,,0.02,meteohub,2013-07-09 13:20:00,
2013-07-09 09:26:00,82.6,75.4,30.17,East,84,0.0,6.0,79,0.00,,,0.02,meteohub,2013-07-09 13:26:00,
2013-07-09 09:31:00,82.8,75.6,30.17,East,84,5.0,5.0,79,0.00,,,0.02,meteohub,2013-07-09 13:31:00,
2013-07-09 09:36:00,82.9,75.7,30.17,East,84,0.0,5.0,79,0.00,,,0.02,meteohub,2013-07-09 13:36:00,
2013-07-09 09:41:00,83.5,75.9,30.17,East,84,0.0,5.0,78,0.00,,,0.02,meteohub,2013-07-09 13:41:00,
2013-07-09 09:47:00,83.8,75.9,30.17,East,84,0.0,5.0,77,0.00,,,0.02,meteohub,2013-07-09 13:47:00,
2013-07-09 09:52:00,84.0,75.6,30.17,East,84,1.0,5.0,76,0.00,,,0.02,meteohub,2013-07-09 13:52:00,
2013-07-09 09:57:00,84.4,75.9,30.17,East,84,1.0,2.0,76,0.00,,,0.02,meteohub,2013-07-09 13:57:00,
2013-07-09 10:02:00,84.7,76.3,30.17,East,84,1.0,6.0,76,0.00,,,0.02,meteohub,2013-07-09 14:02:00,
2013-07-09 10:07:00,85.5,75.7,30.17,East,85,3.0,6.0,73,0.00,,,0.02,meteohub,2013-07-09 14:07:00,
2013-07-09 10:12:00,85.5,75.7,30.17,East,84,1.0,7.0,73,0.00,,,0.02,meteohub,2013-07-09 14:12:00,
2013-07-09 10:17:00,85.5,75.7,30.17,East,85,1.0,7.0,73,0.00,,,0.02,meteohub,2013-07-09 14:17:00,
2013-07-09 10:22:00,85.5,75.7,30.17,East,86,6.0,8.0,73,0.00,,,0.02,meteohub,2013-07-09 14:22:00,
2013-07-09 10:27:00,85.6,75.9,30.17,East,86,5.0,8.0,73,0.00,,,0.02,meteohub,2013-07-09 14:27:00,
2013-07-09 10:32:00,86.0,75.6,30.17,East,86,0.0,8.0,71,0.00,,,0.02,meteohub,2013-07-09 14:32:00,
2013-07-09 10:37:00,86.4,76.3,30.17,East,86,1.0,8.0,72,0.00,,,0.02,meteohub,2013-07-09 14:37:00,
2013-07-09 10:42:00,86.7,76.1,30.18,East,86,2.0,8.0,71,0.00,,,0.02,meteohub,2013-07-09 14:42:00,
2013-07-09 10:47:00,86.7,76.1,30.17,East,86,0.0,6.0,71,0.00,,,0.02,meteohub,2013-07-09 14:47:00,
2013-07-09 10:52:00,86.9,75.9,30.17,East,86,0.0,6.0,70,0.00,,,0.02,meteohub,2013-07-09 14:52:00,
2013-07-09 10:57:00,87.3,75.9,30.17,East,86,0.0,6.0,69,0.00,,,0.02,meteohub,2013-07-09 14:57:00,
2013-07-09 11:02:00,87.4,76.5,30.17,East,86,1.0,7.0,70,0.00,,,0.02,meteohub,2013-07-09 15:02:00,
2013-07-09 11:07:00,88.0,76.5,30.17,East,86,3.0,7.0,69,0.00,,,0.02,meteohub,2013-07-09 15:07:00,
2013-07-09 11:12:00,88.3,76.8,30.18,East,86,1.0,6.0,69,0.00,,,0.02,meteohub,2013-07-09 15:12:00,
2013-07-09 11:17:00,88.0,77.0,30.18,East,86,0.0,5.0,70,0.00,,,0.02,meteohub,2013-07-09 15:17:00,
2013-07-09 11:22:00,88.2,76.6,30.18,East,86,0.0,5.0,69,0.00,,,0.02,meteohub,2013-07-09 15:22:00,
2013-07-09 11:27:00,88.0,77.0,30.18,East,86,0.0,3.0,70,0.00,,,0.02,meteohub,2013-07-09 15:27:00,
2013-07-09 11:32:00,87.6,75.7,30.17,East,86,1.0,5.0,68,0.00,,,0.02,meteohub,2013-07-09 15:32:00,
2013-07-09 11:37:00,87.3,75.9,30.17,East,86,3.0,5.0,69,0.00,,,0.02,meteohub,2013-07-09 15:37:00,
2013-07-09 11:42:00,88.0,76.5,30.18,East,86,3.0,5.0,69,0.00,,,0.02,meteohub,2013-07-09 15:42:00,
2013-07-09 11:47:00,88.5,76.1,30.18,East,86,0.0,5.0,67,0.00,,,0.02,meteohub,2013-07-09 15:47:00,
2013-07-09 11:52:00,88.9,76.5,30.18,East,86,1.0,5.0,67,0.00,,,0.02,meteohub,2013-07-09 15:52:00,
2013-07-09 11:57:00,88.5,76.1,30.18,East,86,3.0,5.0,67,0.00,,,0.02,meteohub,2013-07-09 15:57:00,
2013-07-09 12:03:00,88.9,76.5,30.18,East,86,0.0,7.0,67,0.00,,,0.02,meteohub,2013-07-09 16:03:00,
2013-07-09 12:08:00,88.9,76.5,30.18,East,86,2.0,7.0,67,0.00,,,0.02,meteohub,2013-07-09 16:08:00,
2013-07-09 12:13:00,89.1,76.3,30.18,East,86,1.0,7.0,66,0.00,,,0.02,meteohub,2013-07-09 16:13:00,
2013-07-09 12:18:00,89.4,76.1,30.17,East,86,0.0,5.0,65,0.00,,,0.02,meteohub,2013-07-09 16:18:00,
2013-07-09 12:23:00,89.4,76.6,30.17,East,86,2.0,5.0,66,0.00,,,0.02,meteohub,2013-07-09 16:23:00,
2013-07-09 12:28:00,90.0,76.1,30.17,East,86,3.0,5.0,64,0.00,,,0.02,meteohub,2013-07-09 16:28:00,
2013-07-09 12:33:00,89.8,76.8,30.17,East,86,3.0,5.0,66,0.00,,,0.02,meteohub,2013-07-09 16:33:00,
2013-07-09 12:38:00,90.0,76.1,30.18,East,86,5.0,7.0,64,0.00,,,0.02,meteohub,2013-07-09 16:38:00,
2013-07-09 12:43:00,90.1,76.3,30.17,East,86,0.0,7.0,64,0.00,,,0.02,meteohub,2013-07-09 16:43:00,
2013-07-09 12:48:00,90.1,75.4,30.17,East,86,3.0,6.0,62,0.00,,,0.02,meteohub,2013-07-09 16:48:00,
2013-07-09 12:53:00,90.3,75.9,30.17,East,86,1.0,6.0,63,0.00,,,0.02,meteohub,2013-07-09 16:53:00,
2013-07-09 12:59:00,90.3,75.6,30.17,East,86,1.0,6.0,62,0.00,,,0.02,meteohub,2013-07-09 16:59:00,
2013-07-09 13:04:00,90.5,76.1,30.17,East,86,0.0,5.0,63,0.00,,,0.02,meteohub,2013-07-09 17:04:00,
2013-07-09 13:09:00,90.7,75.9,30.17,East,87,3.0,3.0,62,0.00,,,0.02,meteohub,2013-07-09 17:09:00,
2013-07-09 13:14:00,90.7,75.4,30.17,East,87,1.0,5.0,61,0.00,,,0.02,meteohub,2013-07-09 17:14:00,
2013-07-09 13:19:00,90.5,75.7,30.16,East,87,0.0,5.0,62,0.00,,,0.02,meteohub,2013-07-09 17:19:00,
2013-07-09 13:24:00,91.0,75.2,30.16,East,87,0.0,5.0,60,0.00,,,0.02,meteohub,2013-07-09 17:24:00,
2013-07-09 13:30:00,91.2,75.9,30.16,East,87,0.0,6.0,61,0.00,,,0.02,meteohub,2013-07-09 17:30:00,
2013-07-09 13:35:00,90.9,75.0,30.15,East,86,6.0,6.0,60,0.00,,,0.02,meteohub,2013-07-09 17:35:00,
2013-07-09 13:40:00,90.7,75.4,30.15,East,89,5.0,7.0,61,0.00,,,0.02,meteohub,2013-07-09 17:40:00,
2013-07-09 13:45:00,90.5,74.7,30.15,East,89,5.0,9.0,60,0.00,,,0.02,meteohub,2013-07-09 17:45:00,
2013-07-09 13:50:00,91.0,75.2,30.15,East,88,1.0,9.0,60,0.00,,,0.02,meteohub,2013-07-09 17:50:00,
2013-07-09 13:56:00,91.2,73.8,30.15,East,91,3.0,7.0,57,0.00,,,0.02,meteohub,2013-07-09 17:56:00,
2013-07-09 14:01:00,91.2,74.3,30.15,East,91,2.0,8.0,58,0.00,,,0.02,meteohub,2013-07-09 18:01:00,
2013-07-09 14:06:00,91.0,74.1,30.15,East,94,3.0,8.0,58,0.00,,,0.02,meteohub,2013-07-09 18:06:00,
2013-07-09 14:11:00,90.9,74.5,30.14,East,86,6.0,9.0,59,0.00,,,0.02,meteohub,2013-07-09 18:11:00,
2013-07-09 14:16:00,90.9,74.1,30.14,East,86,2.0,9.0,58,0.00,,,0.02,meteohub,2013-07-09 18:16:00,
2013-07-09 14:21:00,91.2,74.8,30.14,East,86,0.0,9.0,59,0.00,,,0.02,meteohub,2013-07-09 18:21:00,
2013-07-09 14:26:00,91.6,74.1,30.14,East,94,3.0,6.0,57,0.00,,,0.02,meteohub,2013-07-09 18:26:00,
2013-07-09 14:32:00,91.6,73.6,30.14,East,82,6.0,8.0,56,0.00,,,0.02,meteohub,2013-07-09 18:32:00,
2013-07-09 14:37:00,91.9,74.5,30.14,East,80,3.0,9.0,57,0.00,,,0.02,meteohub,2013-07-09 18:37:00,
2013-07-09 14:42:00,92.1,73.6,30.13,East,81,5.0,9.0,55,0.00,,,0.02,meteohub,2013-07-09 18:42:00,
2013-07-09 14:47:00,93.4,75.4,30.13,East,81,3.0,9.0,56,0.00,,,0.02,meteohub,2013-07-09 18:47:00,
2013-07-09 14:52:00,94.6,74.3,30.13,East,81,5.0,7.0,52,0.00,,,0.02,meteohub,2013-07-09 18:52:00,
2013-07-09 14:57:00,95.2,73.6,30.13,East,81,1.0,7.0,50,0.00,,,0.02,meteohub,2013-07-09 18:57:00,
2013-07-09 15:02:00,96.3,73.9,30.13,East,82,3.0,6.0,49,0.00,,,0.02,meteohub,2013-07-09 19:02:00,
2013-07-09 15:07:00,95.4,74.3,30.12,East,90,1.0,7.0,51,0.00,,,0.02,meteohub,2013-07-09 19:07:00,
2013-07-09 15:12:00,94.3,74.5,30.12,East,90,0.0,8.0,53,0.00,,,0.02,meteohub,2013-07-09 19:12:00,
2013-07-09 15:17:00,93.4,73.8,30.12,East,90,2.0,8.0,53,0.00,,,0.02,meteohub,2013-07-09 19:17:00,
2013-07-09 15:22:00,92.8,74.3,30.12,East,90,1.0,8.0,55,0.00,,,0.02,meteohub,2013-07-09 19:22:00,
2013-07-09 15:27:00,92.7,74.1,30.12,East,90,1.0,7.0,55,0.00,,,0.02,meteohub,2013-07-09 19:27:00,
2013-07-09 15:32:00,92.8,73.8,30.12,East,90,0.0,6.0,54,0.00,,,0.02,meteohub,2013-07-09 19:32:00,
2013-07-09 15:37:00,91.8,71.1,30.11,East,90,5.0,6.0,51,0.00,,,0.02,meteohub,2013-07-09 19:37:00,
2013-07-09 15:42:00,90.3,72.0,30.11,East,90,5.0,6.0,55,0.00,,,0.02,meteohub,2013-07-09 19:42:00,
2013-07-09 15:47:00,90.5,71.6,30.11,East,90,1.0,6.0,54,0.00,,,0.02,meteohub,2013-07-09 19:47:00,
2013-07-09 15:52:00,91.0,71.6,30.11,East,90,1.0,6.0,53,0.00,,,0.02,meteohub,2013-07-09 19:52:00,
2013-07-09 15:57:00,90.7,71.8,30.10,East,90,3.0,5.0,54,0.00,,,0.02,meteohub,2013-07-09 19:57:00,
2013-07-09 16:02:00,90.7,71.8,30.10,East,90,0.0,5.0,54,0.00,,,0.02,meteohub,2013-07-09 20:02:00,
2013-07-09 16:07:00,91.8,76.5,30.10,South,175,2.0,6.0,61,0.00,,,0.02,meteohub,2013-07-09 20:07:00,
2013-07-09 16:12:00,91.9,77.0,30.09,WSW,251,4.0,7.0,62,0.00,,,0.02,meteohub,2013-07-09 20:12:00,
2013-07-09 16:17:00,91.8,76.8,30.09,WSW,258,1.0,7.0,62,0.00,,,0.02,meteohub,2013-07-09 20:17:00,
2013-07-09 16:22:00,91.6,76.6,30.09,WSW,252,0.0,8.0,62,0.00,,,0.02,meteohub,2013-07-09 20:22:00,
2013-07-09 16:27:00,91.8,76.8,30.08,WSW,252,1.0,8.0,62,0.00,,,0.02,meteohub,2013-07-09 20:27:00,
2013-07-09 16:32:00,92.8,77.4,30.08,WNW,287,5.0,6.0,61,0.00,,,0.02,meteohub,2013-07-09 20:32:00,
2013-07-09 16:37:00,92.1,76.6,30.08,WNW,284,3.0,7.0,61,0.00,,,0.02,meteohub,2013-07-09 20:37:00,
2013-07-09 16:42:00,92.3,76.8,30.08,WNW,283,5.0,7.0,61,0.00,,,0.02,meteohub,2013-07-09 20:42:00,
2013-07-09 16:47:00,91.2,76.3,30.08,WNW,299,4.0,8.0,62,0.00,,,0.02,meteohub,2013-07-09 20:47:00,
2013-07-09 16:52:00,91.0,76.3,30.08,WNW,292,2.0,9.0,62,0.00,,,0.02,meteohub,2013-07-09 20:52:00,
2013-07-09 16:57:00,91.2,76.3,30.08,WNW,303,4.0,9.0,62,0.00,,,0.02,meteohub,2013-07-09 20:57:00,
2013-07-09 17:02:00,91.6,76.3,30.08,WNW,299,3.0,9.0,61,0.00,,,0.02,meteohub,2013-07-09 21:02:00,
2013-07-09 17:07:00,90.9,76.1,30.07,WNW,295,0.0,7.0,62,0.00,,,0.02,meteohub,2013-07-09 21:07:00,
2013-07-09 17:12:00,91.9,76.6,30.07,WNW,288,2.0,7.0,61,0.00,,,0.02,meteohub,2013-07-09 21:12:00,
2013-07-09 17:17:00,92.7,76.8,30.07,WNW,290,7.0,7.0,60,0.00,,,0.02,meteohub,2013-07-09 21:17:00,
2013-07-09 17:22:00,91.6,76.3,30.07,WNW,286,7.0,10.0,61,0.00,,,0.02,meteohub,2013-07-09 21:22:00,
2013-07-09 17:27:00,91.0,75.2,30.07,West,281,5.0,10.0,60,0.00,,,0.02,meteohub,2013-07-09 21:27:00,
2013-07-09 17:32:00,90.7,75.9,30.06,West,275,1.0,10.0,62,0.00,,,0.02,meteohub,2013-07-09 21:32:00,
2013-07-09 17:37:00,91.0,75.7,30.07,West,279,4.0,9.0,61,0.00,,,0.02,meteohub,2013-07-09 21:37:00,
2013-07-09 17:42:00,90.0,75.7,30.07,WNW,290,3.0,9.0,63,0.00,,,0.02,meteohub,2013-07-09 21:42:00,
2013-07-09 17:47:00,90.1,75.9,30.06,WNW,292,3.0,8.0,63,0.00,,,0.02,meteohub,2013-07-09 21:47:00,
2013-07-09 17:52:00,90.7,75.9,30.06,WNW,292,7.0,8.0,62,0.00,,,0.02,meteohub,2013-07-09 21:52:00,
2013-07-09 17:57:00,90.3,75.9,30.06,WNW,302,5.0,8.0,63,0.00,,,0.02,meteohub,2013-07-09 21:57:00,
2013-07-09 18:02:00,90.7,75.4,30.06,NW,306,2.0,8.0,61,0.00,,,0.02,meteohub,2013-07-09 22:02:00,
2013-07-09 18:07:00,90.9,75.6,30.06,NW,313,0.0,8.0,61,0.00,,,0.02,meteohub,2013-07-09 22:07:00,
2013-07-09 18:12:00,91.0,75.7,30.06,WNW,302,6.0,7.0,61,0.00,,,0.02,meteohub,2013-07-09 22:12:00,
2013-07-09 18:17:00,91.2,75.9,30.06,NW,309,1.0,7.0,61,0.00,,,0.02,meteohub,2013-07-09 22:17:00,
2013-07-09 18:22:00,91.4,75.6,30.06,NW,317,6.0,7.0,60,0.00,,,0.02,meteohub,2013-07-09 22:22:00,
2013-07-09 18:27:00,90.1,75.4,30.06,NW,314,2.0,7.0,62,0.00,,,0.02,meteohub,2013-07-09 22:27:00,
2013-07-09 18:32:00,89.8,75.9,30.06,NW,313,2.0,7.0,64,0.00,,,0.02,meteohub,2013-07-09 22:32:00,
2013-07-09 18:37:00,90.0,75.7,30.06,NW,313,2.0,7.0,63,0.00,,,0.02,meteohub,2013-07-09 22:37:00,
2013-07-09 18:42:00,89.8,76.5,30.06,WNW,302,3.0,7.0,65,0.00,,,0.02,meteohub,2013-07-09 22:42:00,
2013-07-09 18:47:00,89.4,76.1,30.06,WNW,302,6.0,6.0,65,0.00,,,0.02,meteohub,2013-07-09 22:47:00,
2013-07-09 18:52:00,89.2,76.5,30.06,WNW,302,1.0,8.0,66,0.00,,,0.02,meteohub,2013-07-09 22:52:00,
2013-07-09 18:57:00,89.4,76.1,30.06,NW,306,5.0,8.0,65,0.00,,,0.02,meteohub,2013-07-09 22:57:00,
2013-07-09 19:02:00,89.1,75.7,30.06,NW,309,3.0,8.0,65,0.00,,,0.02,meteohub,2013-07-09 23:02:00,
2013-07-09 19:07:00,88.2,76.3,30.06,WNW,302,2.0,6.0,68,0.00,,,0.02,meteohub,2013-07-09 23:07:00,
2013-07-09 19:12:00,87.8,76.3,30.06,NW,309,4.0,7.0,69,0.00,,,0.02,meteohub,2013-07-09 23:12:00,
2013-07-09 19:17:00,87.4,75.6,30.06,WNW,302,0.0,8.0,68,0.00,,,0.02,meteohub,2013-07-09 23:17:00,
2013-07-09 19:22:00,87.3,75.9,30.06,NW,317,2.0,8.0,69,0.00,,,0.02,meteohub,2013-07-09 23:22:00,
2013-07-09 19:27:00,87.6,76.1,30.05,NW,311,5.0,8.0,69,0.00,,,0.02,meteohub,2013-07-09 23:27:00,
2013-07-09 19:32:00,88.2,76.6,30.06,NW,308,0.0,8.0,69,0.00,,,0.02,meteohub,2013-07-09 23:32:00,
2013-07-09 19:37:00,88.5,76.6,30.07,NW,308,0.0,8.0,68,0.00,,,0.02,meteohub,2013-07-09 23:37:00,
2013-07-09 19:42:00,88.2,76.6,30.07,SSE,155,7.0,8.0,69,0.00,,,0.02,meteohub,2013-07-09 23:42:00,
2013-07-09 19:47:00,84.4,75.2,30.07,SSE,161,9.0,15.0,74,0.00,,,0.02,meteohub,2013-07-09 23:47:00,
2013-07-09 19:52:00,82.9,73.4,30.07,South,184,13.0,15.0,73,0.00,,,0.02,meteohub,2013-07-09 23:52:00,
2013-07-09 19:57:00,81.9,73.6,30.07,SSW,193,6.0,15.0,76,0.00,,,0.02,meteohub,2013-07-09 23:57:00,
2013-07-09 20:02:00,81.0,71.4,30.07,SSW,202,2.0,13.0,73,0.00,,,0.02,meteohub,2013-07-10 00:02:00,
2013-07-09 20:07:00,81.1,71.2,30.08,SW,226,3.0,13.0,72,0.00,,,0.02,meteohub,2013-07-10 00:07:00,
2013-07-09 20:12:00,81.3,73.0,30.09,SSW,199,3.0,11.0,76,0.00,,,0.02,meteohub,2013-07-10 00:12:00,
2013-07-09 20:17:00,81.0,73.4,30.08,SSW,199,2.0,9.0,78,0.00,,,0.02,meteohub,2013-07-10 00:17:00,
2013-07-09 20:22:00,80.8,74.5,30.08,SSW,196,2.0,7.0,81,0.00,,,0.02,meteohub,2013-07-10 00:22:00,
2013-07-09 20:27:00,80.6,73.9,30.08,SSW,196,0.0,6.0,80,0.00,,,0.02,meteohub,2013-07-10 00:27:00,
2013-07-09 20:32:00,80.8,73.6,30.08,SSW,196,0.0,5.0,79,0.00,,,0.02,meteohub,2013-07-10 00:32:00,
2013-07-09 20:37:00,80.8,72.9,30.09,SW,224,2.0,3.0,77,0.00,,,0.02,meteohub,2013-07-10 00:37:00,
2013-07-09 20:42:00,81.3,71.8,30.09,WNW,301,1.0,7.0,73,0.00,,,0.02,meteohub,2013-07-10 00:42:00,
2013-07-09 20:47:00,81.7,72.1,30.09,WNW,290,0.0,7.0,73,0.00,,,0.02,meteohub,2013-07-10 00:47:00,
2013-07-09 20:52:00,82.0,73.4,30.08,West,279,0.0,7.0,75,0.00,,,0.02,meteohub,2013-07-10 00:52:00,
2013-07-09 20:57:00,82.2,73.0,30.09,West,279,0.0,4.0,74,0.00,,,0.02,meteohub,2013-07-10 00:57:00,
2013-07-09 21:02:00,82.6,73.4,30.09,West,279,0.0,4.0,74,0.00,,,0.02,meteohub,2013-07-10 01:02:00,
2013-07-09 21:07:00,82.4,73.2,30.09,West,279,2.0,3.0,74,0.00,,,0.02,meteohub,2013-07-10 01:07:00,
2013-07-09 21:12:00,82.0,72.9,30.10,West,279,0.0,3.0,74,0.00,,,0.02,meteohub,2013-07-10 01:12:00,
2013-07-09 21:17:00,82.0,72.5,30.09,West,279,0.0,3.0,73,0.00,,,0.02,meteohub,2013-07-10 01:17:00,
2013-07-09 21:22:00,82.0,72.5,30.09,West,279,0.0,3.0,73,0.00,,,0.02,meteohub,2013-07-10 01:22:00,
2013-07-09 21:27:00,82.0,72.5,30.09,West,279,0.0,2.0,73,0.00,,,0.02,meteohub,2013-07-10 01:27:00,
2013-07-09 21:32:00,81.9,72.7,30.10,West,279,1.0,4.0,74,0.00,,,0.02,meteohub,2013-07-10 01:32:00,
2013-07-09 21:37:00,81.3,72.7,30.11,WNW,283,3.0,5.0,75,0.00,,,0.02,meteohub,2013-07-10 01:37:00,
2013-07-09 21:42:00,81.0,72.7,30.11,WNW,286,0.0,5.0,76,0.00,,,0.02,meteohub,2013-07-10 01:42:00,
2013-07-09 21:47:00,80.8,72.5,30.10,WNW,296,0.0,5.0,76,0.00,,,0.02,meteohub,2013-07-10 01:47:00,
2013-07-09 21:52:00,80.4,72.5,30.11,WNW,298,0.0,5.0,77,0.00,,,0.02,meteohub,2013-07-10 01:52:00,
2013-07-09 21:57:00,80.1,70.2,30.11,NW,311,5.0,5.0,72,0.00,,,0.02,meteohub,2013-07-10 01:57:00,
2013-07-09 22:02:00,80.1,69.4,30.11,NW,306,0.0,9.0,70,0.00,,,0.02,meteohub,2013-07-10 02:02:00,
2013-07-09 22:07:00,80.1,68.9,30.10,NW,306,4.0,9.0,69,0.00,,,0.02,meteohub,2013-07-10 02:07:00,
2013-07-09 22:12:00,79.9,69.3,30.10,NW,306,1.0,9.0,70,0.00,,,0.02,meteohub,2013-07-10 02:12:00,
2013-07-09 22:17:00,79.9,69.3,30.10,NW,314,1.0,5.0,70,0.00,,,0.02,meteohub,2013-07-10 02:17:00,
2013-07-09 22:22:00,79.9,69.6,30.10,NW,314,0.0,7.0,71,0.00,,,0.02,meteohub,2013-07-10 02:22:00,
2013-07-09 22:27:00,79.9,69.6,30.10,NW,314,0.0,7.0,71,0.00,,,0.02,meteohub,2013-07-10 02:27:00,
2013-07-09 22:32:00,80.1,70.2,30.11,NW,314,0.0,7.0,72,0.00,,,0.02,meteohub,2013-07-10 02:32:00,
2013-07-09 22:37:00,79.9,70.0,30.11,NW,314,0.0,2.0,72,0.00,,,0.02,meteohub,2013-07-10 02:37:00,
2013-07-09 22:42:00,79.9,70.0,30.11,NW,314,0.0,2.0,72,0.00,,,0.02,meteohub,2013-07-10 02:42:00,
2013-07-09 22:47:00,79.9,70.0,30.10,NW,314,0.0,2.0,72,0.00,,,0.02,meteohub,2013-07-10 02:47:00,
2013-07-09 22:52:00,79.9,70.0,30.10,NW,314,0.0,2.0,72,0.00,,,0.02,meteohub,2013-07-10 02:52:00,
2013-07-09 22:57:00,79.9,70.5,30.10,NW,314,0.0,1.0,73,0.00,,,0.02,meteohub,2013-07-10 02:57:00,
2013-07-09 23:02:00,80.1,70.7,30.10,NW,314,0.0,1.0,73,0.00,,,0.02,meteohub,2013-07-10 03:02:00,
2013-07-09 23:07:00,80.1,70.7,30.10,NW,314,0.0,0.0,73,0.00,,,0.02,meteohub,2013-07-10 03:07:00,
2013-07-09 23:12:00,80.1,70.7,30.10,NW,314,0.0,0.0,73,0.00,,,0.02,meteohub,2013-07-10 03:12:00,
2013-07-09 23:17:00,80.1,70.7,30.10,NW,314,0.0,0.0,73,0.00,,,0.02,meteohub,2013-07-10 03:17:00,
2013-07-09 23:22:00,80.1,70.7,30.10,NW,314,0.0,0.0,73,0.00,,,0.02,meteohub,2013-07-10 03:22:00,
2013-07-09 23:27:00,80.1,70.7,30.10,NW,314,0.0,0.0,73,0.00,,,0.02,meteohub,2013-07-10 03:27:00,
2013-07-09 23:32:00,80.1,70.7,30.10,NW,314,0.0,0.0,73,0.00,,,0.02,meteohub,2013-07-10 03:32:00,
2013-07-09 23:37:00,80.1,71.1,30.10,NW,314,0.0,0.0,74,0.00,,,0.02,meteohub,2013-07-10 03:37:00,
2013-07-09 23:42:00,79.9,70.9,30.10,NW,314,0.0,0.0,74,0.00,,,0.02,meteohub,2013-07-10 03:42:00,
2013-07-09 23:47:00,79.7,71.1,30.10,NW,314,0.0,1.0,75,0.00,,,0.02,meteohub,2013-07-10 03:47:00,
2013-07-09 23:52:00,79.5,71.2,30.10,NW,314,0.0,1.0,76,0.00,,,0.02,meteohub,2013-07-10 03:52:00,
2013-07-09 23:57:00,79.5,71.2,30.10,NW,314,0.0,1.0,76,0.00,,,0.02,meteohub,2013-07-10 03:57:00,